This is the latest recevied weather packets stored in our database for station/object KD8DNS. If no packets are shown the sender has not sent any weather packets the latest 10 day(s).
| Time | Temp. | Humidity | Pressure | Rain* | Wind** | Luminosity | Snow |
|---|---|---|---|---|---|---|---|
| 1788206852 | 31.67° C | 64% | 1021.7 hPa | 0 mm | - | 203 W/m² | - |
| 1788206552 | 31.67° C | 62% | 1021.8 hPa | 0 mm | - | 218 W/m² | - |
| 1788206247 | 31.67° C | 63% | 1021.8 hPa | 0 mm | - | 218 W/m² | - |
| 1788205944 | 31.67° C | 62% | 1021.6 hPa | 0 mm | - | 216 W/m² | - |
| 1788205638 | 31.67° C | 63% | 1021.8 hPa | 0 mm | - | 192 W/m² | - |
| 1788205334 | 31.67° C | 64% | 1021.9 hPa | 0 mm | - | 195 W/m² | - |
| 1788205027 | 31.67° C | 63% | 1021.8 hPa | 0 mm | - | 208 W/m² | - |
| 1788204723 | 31.67° C | 63% | 1021.9 hPa | 0 mm | - | 160 W/m² | - |
| 1788204418 | 32.22° C | 62% | 1021.8 hPa | 0 mm | - | 149 W/m² | - |
| 1788204113 | 32.78° C | 61% | 1021.7 hPa | 0 mm | - | 163 W/m² | - |
| 1788203809 | 33.33° C | 59% | 1021.8 hPa | 0 mm | - | 240 W/m² | - |
| 1788203505 | 33.33° C | 58% | 1022 hPa | 0 mm | - | 583 W/m² | - |
| 1788203199 | 33.33° C | 59% | 1022 hPa | 0 mm | - | 198 W/m² | - |
| 1788202898 | 33.33° C | 57% | 1022.1 hPa | 0 mm | - | 528 W/m² | - |
| 1788202595 | 33.33° C | 58% | 1021.9 hPa | 0 mm | - | 388 W/m² | - |
| 1788202290 | 32.78° C | 61% | 1022.1 hPa | 0 mm | - | 494 W/m² | - |
| 1788201989 | 33.33° C | 58% | 1022.1 hPa | 0 mm | - | 373 W/m² | - |
| 1788201686 | 33.33° C | 59% | 1022.3 hPa | 0 mm | - | 545 W/m² | - |
| 1788201385 | 33.33° C | 58% | 1022.1 hPa | 0 mm | - | 616 W/m² | - |
| 1788201084 | 32.78° C | 60% | 1022 hPa | 0 mm | - | 833 W/m² | - |
| 1788200783 | 32.78° C | 61% | 1022.3 hPa | 0 mm | - | 340 W/m² | - |
| 1788200479 | 32.78° C | 60% | 1022.5 hPa | 0 mm | - | 293 W/m² | - |
| 1788200174 | 32.22° C | 61% | 1022.5 hPa | 0 mm | - | 494 W/m² | - |
| 1788199874 | 32.78° C | 61% | 1022.5 hPa | 0 mm | - | 302 W/m² | - |
| 1788199575 | 32.78° C | 60% | 1022.5 hPa | 0 mm | - | 435 W/m² | - |
* Rain latest hour (hover to see other rain measurements)
** Current wind speed in m/s (hover to see current wind gust speed)